This site uses a module created by best online poker sites.

BSB police report ending October 17, 2017

Print
"10/16/2017","00:05","217CR0026927","T/S","T/S","FARRELL AND HOWARD","",""
"10/16/2017","00:14","217CR0026928","MEDICAL - EMERGENCY","MEDICAL - EMERGENCY","2813 SILVERBOW BLVD","",""
"10/16/2017","01:02","217CR0026929","DISTURBANCE","PFMA - REASONABLE APPREHENSION","521 1/2 W SILVER","ARREST(s) MADE",""
"10/16/2017","01:38","217CR0026930","ALARM - BURGLARY","ALARM - BURGLARY","************","",""
"10/16/2017","02:01","217CR0026931","SUSPICIOUS ACTIVITY","SUSPICIOUS ACTIVITY","WATERLINE RD AND HOPE RD","",""
"10/16/2017","02:16","217CR0026932","BUSINESS CHECK","BUSINESS CHECK","531 S MONTANA/TOWN PUMP","",""
"10/16/2017","02:44","217CR0026933","DISTURBANCE","ASSAULT, SIMPLE","507 S MAIN","ARREST(s) MADE",""
"10/16/2017","02:45","217CR0026934","DISTURBANCE","CRIMINAL CONTEMPT","2114 WALNUT","ARREST(s) MADE",""
"10/16/2017","05:00","217CR0026935","SUSPICIOUS ACTIVITY","SUSPICIOUS ACTIVITY","2825 ELM","",""
"10/16/2017","05:47","217CR0026936","OPEN BUILDING","OPEN BUILDING","333 E BROADWAY BROADWAY STORAG","",""
"10/16/2017","05:54","217CR0026937","UNKNOWN PROBLEM","UNKNOWN PROBLEM","211 SILVERBOW HOMES","",""
"10/16/2017","06:13","217CR0026938","UNKNOWN PROBLEM","UNKNOWN PROBLEM","211 SILVER BOW HOMES","",""
"10/16/2017","07:01","217CR0026939","ACCIDENT","ACCIDENT","PARK // EXCESLIOR","",""
"10/16/2017","07:05","217CR0026940","SUSPICIOUS ACTIVITY","SUSPICIOUS ACTIVITY","1955 OREGON","",""
"10/16/2017","07:37","217CR0026941","DISTURBANCE","DISTURBANCE","400 S CLARK","",""
"10/16/2017","08:02","217CR0026942","ACCIDENT","FAIL TO STOP WHEN EMERGING","AMHERST AND THOMAS","",""
"10/16/2017","08:16","217CR0026943","ASSAULT","ASSAULT","************","",""
"10/16/2017","08:18","217CR0026944","MEDICAL - EMERGENCY","MEDICAL - EMERGENCY","2920 ELM ST","",""
"10/16/2017","08:43","217CR0026945","CIVIL PAPER SERVICE","CIVIL PAPER SERVICE","3519 S WARREN","",""
"10/16/2017","08:47","217CR0026946","CIVIL PAPER SERVICE","CIVIL PAPER SERVICE","3901 HARRISON AVE","",""
"10/16/2017","08:50","217CR0026947","CIVIL PAPER SERVICE","CIVIL PAPER SERVICE","314 W COPPER","",""
"10/16/2017","09:01","217CR0026948","DISTURBANCE","DISTURBANCE","1301 HARRISON AVE","",""
"10/16/2017","09:11","217CR0026949","HARASSMENT","HARASSMENT","3106 FLORAL BLVD","",""
"10/16/2017","09:19","217CR0026951","DETENTION BUSINESS","DETENTION BUSINESS","************","",""
"10/16/2017","09:19","217CR0026950","CIVIL PAPER SERVICE","CIVIL PAPER SERVICE","600 S MAIN ST","",""
"10/16/2017","09:22","217CR0026952","CIVIL PAPER SERVICE","CIVIL PAPER SERVICE","708 MAJORS","",""
"10/16/2017","09:53","217CR0026953","T/S","T/S @ PARROT AND ROWE RD","PARROT AND ROWE RD","",""
"10/16/2017","10:05","217CR0026954","ALL OTHER","ALL OTHER","119130 GERMAN GULCH ROAD","",""
"10/16/2017","10:32","217CR0026955","T/S","T/S","1000 BLK W PARK","",""
"10/16/2017","10:35","217CR0026956","MEDICAL - EMERGENCY","MEDICAL - EMERGENCY","2422 ARGYLE","",""
"10/16/2017","10:38","217CR0026957","SUSPICIOUS ACTIVITY","SUSPICIOUS ACTIVITY","2710 PARROT","",""
"10/16/2017","11:04","217CR0026958","HARASSMENT","HARASSMENT","3120 FLORAL","",""
"10/16/2017","11:24","217CR0026959","CIVIL PAPER SERVICE","CIVIL PAPER SERVICE","2815 LOCUST ST","",""
"10/16/2017","11:27","217CR0026960","THEFT","THEFT, ALL OTHERS","333 E BROADWAY/BROADWAY MINI","",""
"10/16/2017","11:32","217CR0026961","CIVIL PAPER SERVICE","CIVIL PAPER SERVICE","2220 WALL ST","",""
"10/16/2017","11:35","217CR0026962","CITIZEN AID","CITIZEN AID","400 S CLARK","",""
"10/16/2017","11:35","217CR0026963","CIVIL PAPER SERVICE","CIVIL PAPER SERVICE","2815 LOCUST","",""
"10/16/2017","11:45","217CR0026965","DETENTION BUSINESS","DETENTION BUSINESS","************","",""
"10/16/2017","11:45","217CR0026964","CIVIL PAPER SERVICE","CIVIL PAPER SERVICE","3615 WYNNE AVE","",""
"10/16/2017","11:52","217CR0026966","MEDICAL - EMERGENCY","MEDICAL - EMERGENCY","2068 CAROLINA","",""
"10/16/2017","11:53","217CR0026967","THEFT","THEFT","701 CENTENNIAL AVE","",""
"10/16/2017","12:00","217CR0026968","CITIZEN AID","CITIZEN AID","3901 HARRISON AVE","",""
"10/16/2017","12:06","217CR0026969","INFORMATION ONLY","INFORMATION ONLY","750 S UTAH EVANS TRANSP","",""
"10/16/2017","12:11","217CR0026970","ASSAULT","ASSAULT, SIMPLE","2600 GRAND AVE","ARREST(s) MADE",""
"10/16/2017","12:26","217CR0026971","DISTURBANCE","DISTURBANCE","GRANITE MTN RD","",""
"10/16/2017","12:38","217CR0026972","MEDICAL - EMERGENCY","MEDICAL - EMERGENCY","714 E SECOND ST","",""
"10/16/2017","12:40","217CR0026973","HARASSMENT","HARASSMENT","472 N EXCELSIOR","",""
"10/16/2017","12:59","217CR0026974","SUSPICIOUS ACTIVITY","SUSPICIOUS ACTIVITY","DEWEY AND HARRISON","",""
"10/16/2017","13:19","217CR0026975","MEDICAL - EMERGENCY","MEDICAL - EMERGENCY","100 GARDENS WY","",""
"10/16/2017","13:23","217CR0026976","ATL","ATL","HARRISON AND GILMAN","",""
"10/16/2017","13:39","217CR0026977","THEFT","THEFT, SHOPLIFT","3901 HARRISON AVE","",""
"10/16/2017","13:59","217CR0026978","DISTURBANCE","DISTURBANCE","520 S IDAHO ST","",""
"10/16/2017","14:08","217CR0026979","CIVIL PAPER SERVICE","CIVIL PAPER SERVICE","3901 HARRISON AVE","",""
"10/16/2017","14:12","217CR0026980","THEFT","THEFT","225 N ALASKA","",""
"10/16/2017","14:39","217CR0026981","ALARM - BURGLARY","ALARM - BURGLARY","************","",""
"10/16/2017","14:42","217CR0026982","PARKING COMPLAINT","PARKING COMPLAINT","53 W PARK ST","",""
"10/16/2017","14:44","217CR0026983","WELFARE CHECK","WELFARE CHECK","1700 CIVIC CENTER RD","",""
"10/16/2017","15:22","217CR0026984","ALL OTHER","ALL OTHER","207 S EXCELSIOR","",""
"10/16/2017","15:33","217CR0026985","WELFARE CHECK","WELFARE CHECK","710 1/2 W PARK","",""
"10/16/2017","16:01","217CR0026986","THEFT","THEFT","225 N ALASKA","",""
"10/16/2017","16:13","217CR0026987","HARASSMENT","HARASSMENT","CLARKS PARK","",""
"10/16/2017","16:19","217CR0026988","HARASSMENT","HARASSMENT","155 W GRANITE/JUSTICE COURT","",""
"10/16/2017","16:20","217CR0026990","ANIMAL COMPLAINT","ANIMAL COMPLAINT","616 S WASHINGTON","",""
"10/16/2017","16:36","217CR0026992","SUICIDE ATTEMPT/THREAT","SUICIDE ATTEMPT/THREAT","************","",""
"10/16/2017","17:08","217CR0026993","MEDICAL - ASSIST","MEDICAL - ASSIST","************","",""
"10/16/2017","17:10","217CR0026994","ALARM - BURGLARY","ALARM - BURGLARY","************","",""
"10/16/2017","17:27","217CR0026995","ALL OTHER","ALL OTHER","1826 HARRISON AVE","",""
"10/16/2017","17:31","217CR0026996","DISTURBANCE","DISTURBANCE","924 S COLORADO","",""
"10/16/2017","17:41","217CR0026997","W/PRISONER","W/PRISONER","1004 MISSOULA AVE","",""
"10/16/2017","17:49","217CR0026998","ALL OTHER","ALL OTHER","1330 JOY LANE","",""
"10/16/2017","18:20","217CR0026999","T/S","NO LIABILITY INSURANCE IN EFF.","HARRISON AND HOLMES","",""
"10/16/2017","18:25","217CR0027000","BURGLARY","BURGLARY, NON-RESIDENCE","1120 GRIZZLY TRAIL","",""
"10/16/2017","18:37","217CR0027001","ANIMAL COMPLAINT","ANIMAL COMPLAINT","1835 STUART AVE","",""
"10/16/2017","18:45","217CR0027002","SUSPICIOUS ACTIVITY","SUSPICIOUS ACTIVITY","ALABAMA ST AND HORNET ST","",""
"10/16/2017","19:03","217CR0027003","CITIZEN AID","CITIZEN AID","213 BAVARIA","",""
"10/16/2017","19:07","217CR0027004","ALL OTHER","ALL OTHER","1701 1/2 S WARREN","",""
"10/16/2017","19:09","217CR0027005","ATL","ATL","LEXINGTON // ROWE ROAD","",""
"10/16/2017","19:22","217CR0027006","ALL OTHER","ALL OTHER","I90 MM217 WBND","",""
"10/16/2017","19:37","217CR0027007","WELFARE CHECK","WELFARE CHECK","1827 OREGON","",""
"10/16/2017","19:42","217CR0027008","THEFT","THEFT","PARK ST AND WASHINGTON ST","",""
"10/16/2017","19:46","217CR0027009","CIVIL PAPER SERVICE","CIVIL PAPER SERVICE","808 SILVERBOW HOMES","",""
"10/16/2017","20:00","217CR0027010","VANDALISM/CRIMINAL MISCHIEF","BURGLARY, NON-RESIDENCE","18 N MONTANA","",""
"10/16/2017","20:31","217CR0027011","JUVENILE MISC","JUVENILE MISC","************","",""
"10/16/2017","20:45","217CR0027012","ACCIDENT","ACCIDENT","CIVIC CENTER PARKING LOT","",""
"10/16/2017","20:57","217CR0027013","MEDICAL - EMERGENCY","MEDICAL - EMERGENCY","1515 OREGON APT 208","",""
"10/16/2017","21:14","217CR0027014","WELFARE CHECK","WELFARE CHECK","1125 S MAIN ST APT 205","",""
"10/16/2017","21:32","217CR0027015","SUSPICIOUS ACTIVITY","SUSPICIOUS ACTIVITY","931 N MAIN","",""
"10/16/2017","21:41","217CR0027016","CITIZEN AID","CITIZEN AID","225 N ALASKA","",""
"10/16/2017","21:54","217CR0027017","INTOXICATED PERSON","INTOXICATED PERSON","531 S MONTANA","",""
"10/16/2017","21:57","217CR0027018","ANIMAL COMPLAINT-BITE","ANIMAL COMPLAINT-BITE","83 HECLA","",""
"10/16/2017","22:16","217CR0027019","T/S","OUT OF JURISDICTION - MISD","400 BLK CENTENIAL AVE","",""
"10/16/2017","22:25","217CR0027020","HARASSMENT","HARASSMENT","1436 SUNSET","",""
"10/16/2017","22:38","217CR0027021","ASSAULT","ASSAULT PEACE OFFC -  NO INJ","155 W QUARTZ BSB DETENTION CEN","ARREST(s) MADE",""
"10/16/2017","22:50","217CR0027022","MEDICAL - EMERGENCY","MEDICAL - EMERGENCY","600 BLK W PARK","",""
"10/16/2017","22:58","217CR0027023","BUSINESS CHECK","BUSINESS CHECK","916 E FRONT","",""
"10/16/2017","23:09","217CR0027024","T/S","T/S","MARYLAND AND DEWEY","",""
"10/16/2017","23:15","217CR0027025","INFORMATION ONLY","INFORMATION ONLY","225 N ALASKA","",""
"10/17/2017","00:20","217CR0027026","BUSINESS CHECK","CRIMINAL CONTEMPT","531 S MONTANA/TOWN PUMP","ARREST(s) MADE",""
"10/17/2017","01:21","217CR0027027","SUSPICIOUS ACTIVITY","POSSESS DRUG PARAPHERNALIA","520 HOLMES RED WRECKER","",""
"10/17/2017","01:29","217CR0027028","T/S","T/S","HARVARD AND HARRISON","",""
"10/17/2017","01:38","217CR0027029","ILLEGAL SHOOTING","ILLEGAL SHOOTING","1125 S MAIN ROSALIE MANOR","",""
"10/17/2017","01:57","217CR0027030","BUSINESS CHECK","BUSINESS CHECK","FLYING J IN ROCKER","",""
"10/17/2017","02:22","217CR0027031","T/S","T/S","S DAKOTA AND MONTANA","",""
"10/17/2017","02:28","217CR0027032","SUSPICIOUS ACTIVITY","SUSPICIOUS ACTIVITY","1900 S MONTANA THRIFTWAY","",""
"10/17/2017","03:16","217CR0027034","BUSINESS CHECK","BUSINESS CHECK","1370 HARRISON/TOWN PUMP","",""
"10/17/2017","06:43","217CR0027035","MEDICAL - EMERGENCY","MEDICAL - EMERGENCY","1023 S UTAH","",""
"10/17/2017","06:49","217CR0027036","VANDALISM/CRIMINAL MISCHIEF","VANDALISM/CRIMINAL MISCHIEF","2600 AMHERST","",""
"10/17/2017","07:30","217CR0027037","FOUND PROPERTY","FOUND PROPERTY","************","",""
"10/17/2017","07:34","217CR0027038","WELFARE CHECK","WELFARE CHECK","800 S UTAH","",""
"10/17/2017","08:01","217CR0027039","T/S","T/S @ GRAND AND MONROE","GRAND AND MONROE","",""
 
Thursday the 18th. Affiliate Marketing.
Copyright 2012

©